STARLINK-36712, 67700

Orbit data source: Space-Track

STARLINK-36712, 67700 is a payload satellite owned by SpaceX/Seattle (US) in SSO that was launched on Sat, 07 Feb 2026 UTC via an FALCON 9 launch vehicle from the Air Force Western Test Range (AFWTR). Payload-class satellites include a variety of spacecraft equipped with specific instruments for various scientific and technological missions. These include communications satellites like Starlink; space stations such as the ISS; scientific satellites like the Hubble; Earth observation satellites from companies like Planet Labs, Umbra, and HawkEye 360; GPS; miniature CubeSats for education and research; and military/defense satellites.

Loading next visibility...
Identifier
67700, 2026-025H
Orbit
SSO
Country
Flag of USUS
Related business
Manufacturer
SpaceX/Seattle
Mission
Operational spacecraft
Bus & Motor
STARLINK V2MO, Unknown motor
Mass
575 kg wet, ~530 kg dry
Launch date (UTC)
2026-02-07 (1 month ago)
Launch vehicle
FALCON 9
Launch site
Air Force Western Test Range (AFWTR)
Object type
Payload
Rocket body
Debris
Shape & HBR
Unknown
Radar Cross Section
RCS unknown

Expand to show TLE details & history
Last TLE update: 13 hours ago

TLE from 13 hours ago
0 STARLINK-36712
1 67700U 26025H   26071.82560556  .00142989  00000-0  94144-3 0  9996
2 67700  97.2834 183.5592 0001796  88.5138 271.6333 15.75241616  6430
Epoch: 2026-03-12T19:48Z
TLE epoch observation values (Epoch: 2026-03-12T19:48:52.320Z)
Latitude
-0.00002°
Longitude
75.87127°
Altitude
347.078 km
Speed
7.701 km/s
True Right ascension
12h 14m 14s
True Declination
0° 00' 00"
Sunlit
Object was in full shadow at epoch
Visualization orbit readout
Latitude
Unknown
Longitude
Unknown
Altitude
Unknown
Speed
Unknown
Apparent Right ascension
Unknown
Apparent Declination
Unknown
Sunlit
N/A
Visualization observer readout
Local Sidereal Time
12:54:14
Azimuth
Unknown
Elevation
Unknown
Doppler factor
Unknown
Orbital elements
Apogee altitude
342.038 km
Perigee altitude
339.624 km
Semi-major axis
6,718.968 km
Eccentricity
0.00018
Inclination
97.2834°
RAAN
183.5592°
Arg. of periapsis
88.5138°
True anomaly
271.61273°
Mean anomaly
271.6333°
Eccentric anomaly
271.62301°
Mean motion
3.94084 °/min
Orbital period
91.35 mins
BSTAR
0.00094144
Loading maneuver chart data...
Computing Atmospheric mass density...
Loading historical data...
Loading historical data...
Loading historical data...
Loading historical data...
Loading historical data...
Loading historical data...
Loading historical data...

Documentation

Showing up to 5 results
|